Regional Weather Roundup
Issued by NWS Albany, NY

Home | Current Version | Previous Version | Graphics & Text | Print | Product List | Glossary Off
Versions: 1 2 3 4 5 6 7 8 9 10 11 12 13 14 15 16 17 18 19 20 21 22 23 24 25 26 27 28 29 30 31 32 33 34 35 36 37 38 39 40 41 42 43 44 45 46 47 48 49 50

932
ASUS41 KALY 240910
RWRALY

NEW YORK STATE HOURLY WEATHER ROUNDUP
NATIONAL WEATHER SERVICE ALBANY NY
500 AM EDT SUN JUL 24 2016

NOTE: "FAIR" INDICATES FEW OR NO CLOUDS BELOW 12,000 FEET WITH NO
SIGNIFICANT WEATHER AND/OR NO OBSTRUCTIONS TO VISIBILITY.

NYZ032-033-038>043-046>054-057>066-NYZ062>081-082-084-241000-
EAST


CITY           SKY/WX    TMP DP  RH WIND       PRES   REMARKS
ALBANY         PTCLDY    61  59  93 CALM      29.96F
GLENS FALLS    FOG       63  62  97 CALM      29.97R VSB 1/4
POUGHKEEPSIE   CLEAR     64  60  87 CALM      29.96S
NEWBURGH       CLEAR     73  61  64 CALM      29.98S
MONTGOMERY     CLEAR     61  59  93 CALM      29.97S
WHITE PLAINS   CLEAR     67  59  75 CALM      29.95S
ISLIP          CLEAR     70  60  70 N3        29.93S
NEW YORK CITY  CLEAR     76  63  64 NE6       29.94R
CENTRAL PARK   CLEAR     77  58  51 VRB3      29.97S
$$

NYZ005>009-017-018-044>046-055-056-241000-
CENTRAL


CITY           SKY/WX    TMP DP  RH WIND       PRES   REMARKS
FULTON         FOG       63  59  87 CALM      30.00S VSB 1
SYRACUSE       PTCLDY    63  62  97 CALM      29.99S
ROME           CLEAR     60  60 100 CALM      30.01R
ELMIRA         CLEAR     58  54  86 CALM      30.02R
BINGHAMTON     CLEAR     66  57  72 CALM      30.03F
MONTICELLO     CLEAR     63  57  82 NW3       30.03S
$$

NYZ026>034-041>043-087-241000-
NORTH


CITY           SKY/WX    TMP DP  RH WIND       PRES   REMARKS
WATERTOWN      CLEAR     54  52  93 CALM      30.00S FOG
FORT DRUM      NOT AVBL
MASSENA        CLEAR     57  54  89 CALM      30.01S
SARANAC LAKE   MOCLDY    48  46  93 N3        30.01S FOG
PLATTSBURGH    CLEAR     60  53  77 NW7       30.00R
$$

NYZ001>004-010>016-019>021-085-241000-
WEST


CITY           SKY/WX    TMP DP  RH WIND       PRES   REMARKS
NIAGARA FALLS  PTCLDY    68  59  73 E5        29.99S
BUFFALO        CLOUDY    67  61  81 E5        30.00S
DUNKIRK        CLOUDY    64  62  93 CALM      29.99F
JAMESTOWN      MOCLDY    63  57  82 CALM      30.05R
WELLSVILLE     PTCLDY    61  57  87 CALM      30.08S
ROCHESTER      CLEAR     64  59  83 CALM      30.01R
PENN YAN       CLEAR     61  56  83 S3        30.03R
$$

             KEY
       WCI = WIND CHILL INDEX
       VSB = VISIBILITY
       HX  = HEAT INDEX
$$




USA.gov is the U.S. government's official web portal to all federal, state and local government web resources and services.